{"data":{"norad_id":64320,"intl_designator":"2025-124D","name":"STARLINK-11594 [DTC]","alt_names":[],"object_type":"PAYLOAD","status":"ACTIVE","operator":null,"country":"US","launch_date":"2025-06-10","launch_site_code":"AFETR","launch_vehicle":null,"mission":null,"orbit_class":"UNKNOWN","rcs_meters":null,"size_class":null,"mass_kg":null,"dimensions":null,"purposes":["comms"],"wikipedia_slug":null,"has_3d_model":false,"image_url":null,"decayed_at":null,"tle_current":{"epoch":"2026-05-24T18:09:34.994592Z","epoch_age_seconds":106242,"freshness":"FRESH","line1":"1 64320U 25124D   26144.75665503  .00206698  00000+0  15719-2 0  9998","line2":"2 64320  42.9980 291.0752 0001277 300.4114  59.6627 15.70881331 54792","mean_motion":15.70881331,"eccentricity":0.0001277,"inclination_deg":42.998,"raan_deg":291.0752,"arg_perigee_deg":300.4114,"mean_anomaly_deg":59.6627,"bstar":0.0015719,"rev_number":5479,"period_min":91.668286558815,"perigee_km":355.51693499628,"apogee_km":357.23692985462,"semimajor_km":6734.5139324255,"source":"CELESTRAK","updated_at":"2026-05-25T13:38:20.393750Z"}}}